Wind_Speed
60 60 61 61 61 61 60 59 59 58 58 58 58 59 59 60 61 60 59 57 57 59 59 59 59 59 60 61 60 59 60 60 62 64 63 62 61 60 60 59 59 58 58 57 56 54 52 50 49 48 47 47 47 47 47 47 46 45 44 43 42 39 37 36 35 35 33 32 32 30 28 26 24 22 21 20 19 18 18 16 16 16 16 17 18 18
58 59 59 59 58 58 57 57 57 57 57 57 57 58 59 60 60 59 58 56 57 58 59 58 57 58 58 59 59 59 59 60 62 62 61 60 59 58 58 58 57 56 55 55 54 52 50 48 46 46 45 45 44 45 45 44 43 42 41 41 40 39 37 37 36 34 33 31 31 31 30 28 26 23 21 20 19 18 18 18 19 20 21 21 22 22
56 56 56 55 55 56 56 57 57 56 56 56 57 58 59 59 59 58 56 56 56 57 57 57 56 56 57 57 58 57 57 58 59 59 58 58 57 56 56 55 54 53 53 52 51 49 47 45 44 43 43 43 43 43 43 43 42 41 40 40 40 40 39 37 36 35 33 32 30 30 30 29 28 26 24 22 21 20 20 21 22 23 24 25 25 25
53 53 53 53 54 55 55 55 55 55 55 56 57 57 58 58 57 56 55 55 55 55 56 56 55 55 55 56 55 55 55 55 56 55 55 55 54 54 53 52 51 50 50 49 49 47 45 43 42 41 41 42 42 42 42 41 40 40 39 39 40 40 39 39 38 36 35 33 32 31 31 31 30 29 27 25 24 23 22 22 23 24 26 27 27 27
50 51 51 52 52 52 52 53 53 53 53 54 54 55 55 55 54 53 52 53 53 53 53 53 53 53 53 53 53 52 52 52 52 52 52 52 51 51 50 49 48 48 47 47 47 45 43 42 41 40 41 41 42 41 41 40 39 39 39 39 40 40 40 40 39 38 37 35 34 33 32 32 32 32 31 30 28 27 25 24 24 24 26 27 27 28
49 49 49 49 50 50 50 51 51 51 51 52 53 53 53 52 51 50 49 50 50 50 50 50 49 49 49 49 49 49 49 49 49 49 49 49 48 47 46 46 45 45 45 45 45 44 43 43 42 41 41 41 41 41 40 39 39 38 39 39 40 40 41 41 40 39 38 37 36 35 34 33 33 33 33 33 32 30 29 29 28 27 28 28 28 29
48 48 48 48 48 48 49 49 50 50 50 50 51 50 49 48 48 47 47 47 47 47 47 46 46 45 45 46 46 46 46 46 46 47 46 46 45 43 43 43 43 43 44 44 44 45 44 43 42 41 40 40 40 40 40 39 39 39 39 40 40 41 41 41 41 39 38 38 37 36 35 34 34 33 34 34 34 33 33 34 33 33 33 33 32 32
48 47 47 47 48 48 48 49 49 49 48 48 48 47 46 46 45 45 44 44 44 44 44 43 43 43 43 43 44 44 44 45 45 45 44 43 42 41 41 42 42 43 44 44 45 46 45 44 42 40 40 40 40 40 39 39 39 40 40 41 41 41 41 41 40 39 38 37 37 36 36 35 35 34 34 34 34 34 34 34 35 35 35 35 35 35
47 47 47 47 47 48 48 48 48 47 47 47 46 45 44 43 43 42 42 42 41 41 41 41 41 42 41 42 43 44 44 44 44 43 42 41 41 40 41 42 42 43 44 45 46 46 46 44 42 39 38 39 39 39 39 39 40 40 41 42 42 41 40 40 38 38 37 36 36 36 36 36 36 36 36 36 36 35 34 34 34 34 34 35 36 36
47 47 47 47 48 48 48 48 47 47 47 46 45 44 43 42 41 40 40 40 39 39 39 40 40 41 41 41 42 44 44 44 43 42 42 41 41 41 42 42 43 43 44 44 45 46 45 43 41 39 37 38 38 38 39 40 40 41 41 41 40 39 38 37 36 36 35 35 34 34 35 35 36 36 37 37 36 36 35 35 35 35 35 35 36 36
48 48 48 49 49 49 49 48 48 48 47 47 46 45 43 41 40 40 40 39 39 39 40 40 41 42 42 42 42 44 44 44 43 43 42 41 41 42 42 43 43 43 43 43 43 43 43 43 41 39 36 35 37 38 39 40 41 41 41 40 38 37 36 34 34 34 33 33 32 32 32 33 34 34 34 34 34 34 34 34 35 35 35 35 35 35
50 50 50 50 50 50 50 49 49 48 48 48 47 45 44 42 41 41 41 40 40 41 41 41 41 42 42 42 42 43 44 44 43 43 43 42 42 42 42 43 43 43 42 41 41 41 42 42 40 38 36 35 36 39 40 41 42 42 40 39 37 35 34 33 32 32 32 32 31 31 31 32 32 32 32 32 31 31 32 32 33 33 33 32 31 31
50 51 51 50 50 50 50 50 50 50 50 49 48 47 45 43 41 42 42 42 42 42 43 43 42 42 42 42 42 44 44 43 43 43 43 42 42 42 42 43 42 42 41 40 39 39 41 41 40 38 36 36 37 39 41 42 43 42 41 38 35 34 33 33 33 33 32 32 32 32 33 33 32 32 32 32 32 31 31 32 33 33 32 31 30 29
50 50 51 51 51 51 51 51 51 52 51 51 50 48 46 44 43 43 44 44 43 44 44 43 43 43 42 42 42 43 43 43 43 43 42 42 42 41 42 41 41 40 39 39 39 40 41 41 39 37 36 36 38 40 43 44 44 43 41 37 34 32 32 33 34 35 35 34 34 35 35 35 34 33 34 34 34 33 32 33 34 34 34 32 31 30
50 51 51 52 52 52 52 53 53 53 52 52 50 49 48 47 46 46 46 45 45 45 44 44 43 42 42 42 43 43 43 42 42 42 42 42 42 42 41 40 40 39 39 39 40 40 40 39 37 35 31 30 33 37 41 41 43 43 40 36 32 28 29 33 36 36 36 35 36 37 36 35 35 34 34 36 36 35 34 34 34 35 35 34 33 32
50 51 52 52 52 52 53 54 53 53 52 52 51 50 50 49 48 47 47 47 46 46 45 44 43 43 43 44 43 43 43 42 42 42 42 43 43 43 42 41 40 39 40 41 40 39 38 36 36 32 24 21 26 33 38 39 40 42 39 34 28 25 30 37 39 37 35 35 38 39 37 36 37 37 36 36 37 37 36 35 35 36 37 37 35 34
50 51 51 51 51 51 53 53 53 52 52 52 51 51 51 50 49 49 48 48 47 46 45 44 44 44 44 44 44 43 43 43 43 44 44 44 43 43 42 41 40 39 39 40 39 38 36 34 35 32 26 29 32 35 41 42 42 42 40 30 22 26 36 41 40 36 34 37 39 40 39 38 40 40 38 38 39 39 39 38 38 38 39 40 38 37
49 50 50 51 50 51 52 52 51 51 51 50 50 50 51 50 49 49 48 48 47 46 46 45 45 44 44 44 44 43 44 44 45 45 45 44 43 43 43 42 41 40 39 39 38 37 34 31 31 32 33 36 39 40 43 46 45 45 42 31 26 33 43 43 39 37 37 39 40 40 41 41 43 43 42 41 41 42 42 42 42 41 42 42 41 41
48 49 50 51 51 51 51 51 51 50 50 50 50 50 50 49 49 49 48 47 46 46 45 45 44 44 44 44 44 44 45 45 45 45 44 44 44 44 44 43 42 41 39 40 39 37 35 34 35 37 39 41 44 45 45 48 50 49 44 37 34 39 44 44 42 40 39 40 41 43 43 43 44 45 45 45 45 44 45 46 47 45 45 45 44 44
47 48 49 50 51 52 51 51 51 50 49 50 50 49 48 47 47 48 48 47 47 46 45 45 44 43 43 43 44 45 46 45 45 45 44 44 45 45 44 43 43 42 40 40 39 37 38 39 41 43 43 46 50 51 50 51 53 53 48 42 39 40 43 45 45 43 42 43 44 45 44 44 44 45 46 48 49 48 48 50 51 50 49 49 48 47
45 46 48 50 51 51 50 50 50 50 50 49 49 49 49 48 47 47 48 48 48 47 46 46 45 44 44 44 45 45 46 46 46 45 45 45 45 44 44 44 44 44 42 41 39 38 39 42 46 48 48 50 52 55 55 54 54 57 54 48 44 42 42 44 47 46 44 45 47 47 46 45 45 46 47 49 50 51 51 53 54 53 52 51 50 50
44 45 48 49 49 50 49 49 49 49 49 49 49 49 49 49 48 48 48 48 48 48 48 47 46 46 46 46 46 46 47 47 47 47 46 46 46 46 46 45 46 46 45 43 41 41 42 45 48 51 53 56 57 59 59 57 56 59 59 53 47 44 42 44 47 47 46 48 50 51 50 49 48 48 49 49 50 51 52 54 56 55 53 52 52 52
44 45 47 48 47 48 48 48 48 48 48 49 49 49 50 50 50 50 49 49 49 49 49 49 48 48 47 47 47 47 48 49 49 49 49 48 48 47 47 47 47 48 47 45 44 44 45 46 48 51 54 58 60 61 62 61 61 61 60 55 49 45 44 45 48 50 51 52 54 55 54 53 52 52 51 51 51 52 53 55 56 55 55 54 55 55
46 46 47 47 47 47 47 46 47 47 47 48 49 49 50 51 51 51 51 51 50 50 49 49 48 48 48 49 49 49 50 50 51 51 50 50 49 49 49 49 48 49 48 48 47 46 46 47 48 50 53 55 56 57 58 59 60 60 60 58 54 52 51 51 52 53 54 55 56 57 56 56 55 55 54 53 52 52 53 55 56 56 54 52 53 53
49 49 49 49 48 47 46 46 47 47 48 49 50 50 51 52 53 52 52 52 51 50 50 50 50 50 50 50 50 50 51 51 52 52 52 52 51 51 51 50 49 49 49 49 49 48 48 49 49 50 51 53 53 53 54 54 56 58 59 60 60 59 57 55 55 55 55 56 57 58 59 58 58 57 56 56 55 54 53 54 56 58 56 53 51 51
53 53 52 51 50 48 48 49 50 51 51 52 52 52 52 53 53 53 53 52 51 51 51 50 50 51 51 51 50 50 51 52 53 53 53 53 53 52 52 51 50 50 50 50 50 50 50 50 51 52 52 53 53 53 54 54 55 57 59 60 60 60 58 56 56 56 56 58 58 59 60 60 59 59 58 57 57 56 56 55 56 58 60 60 60 59
55 56 55 53 53 52 52 52 53 53 53 53 53 53 52 53 53 54 54 53 53 53 52 51 51 52 52 52 52 52 53 53 54 54 54 54 54 53 53 52 52 52 52 52 52 52 52 53 54 54 55 55 55 55 56 56 57 58 59 60 59 59 59 58 58 57 58 58 59 60 60 61 60 60 60 59 59 58 58 57 57 57 59 61 64 65
57 59 58 56 55 56 55 55 55 55 55 55 55 54 54 54 54 55 55 55 55 55 54 53 53 54 54 55 55 55 55 55 55 55 55 55 55 55 54 54 54 54 54 54 53 54 55 55 56 56 57 57 58 58 58 59 59 60 60 61 61 61 60 60 59 59 58 59 59 60 61 61 61 61 61 61 60 60 59 59 58 58 58 59 61 63
60 61 61 59 58 58 58 58 58 58 58 58 57 56 57 57 57 58 58 58 58 57 57 56 56 56 57 57 57 57 57 57 58 57 56 56 56 56 56 56 56 57 57 57 56 56 57 57 58 58 59 59 60 60 60 61 61 62 62 63 63 63 63 62 61 61 61 61 61 62 62 63 62 62 62 62 61 61 60 59 59 58 58 59 59 60
60 62 62 63 62 61 60 60 60 61 61 61 60 60 60 60 60 60 60 60 60 59 59 59 58 58 59 59 60 60 60 60 60 60 59 58 58 58 58 58 58 59 59 59 59 59 59 59 60 60 61 61 62 62 62 63 63 63 64 65 66 66 66 65 64 64 65 65 64 64 64 64 64 63 63 63 63 62 61 60 59 59 59 58 58 58
58 60 62 64 64 64 63 63 64 64 65 65 64 63 62 62 62 62 62 62 62 61 61 60 60 60 60 61 62 62 62 62 62 62 61 61 61 61 61 61 61 62 62 62 62 62 62 62 63 63 63 64 64 65 65 65 65 66 66 67 68 69 69 68 68 68 68 68 67 66 66 66 65 65 64 64 63 63 62 61 60 59 59 59 59 58
56 58 59 61 63 64 65 66 67 68 68 67 65 64 63 63 63 63 63 64 63 63 63 62 62 63 63 63 64 63 63 64 64 65 65 65 65 65 66 66 66 66 66 66 66 66 66 66 66 67 67 67 68 68 69 69 69 69 69 70 71 71 71 71 71 71 70 70 69 68 67 67 66 66 66 65 64 63 63 62 61 61 60 60 59 59
55 56 57 59 60 61 62 64 66 67 67 66 66 65 64 64 65 65 65 66 65 65 65 65 65 65 65 66 66 66 66 67 68 68 69 69 69 70 70 71 71 71 71 71 71 70 70 70 70 71 71 72 72 72 72 72 72 72 73 73 73 73 73 73 72 72 72 71 70 70 69 68 68 67 67 66 66 65 64 63 62 62 61 61 60 60
55 56 57 58 58 59 59 60 61 62 61 61 63 63 62 62 63 65 66 67 67 68 68 68 68 68 68 68 69 69 69 70 71 71 72 72 73 73 74 74 74 74 74 74 74 73 73 73 73 73 74 74 74 74 74 74 75 75 75 75 75 75 74 74 74 73 73 72 72 72 71 70 70 69 69 68 67 67 66 65 64 63 63 62 62 61
57 57 58 59 59 59 59 59 59 57 57 57 58 58 58 57 58 59 61 62 64 65 65 65 65 65 65 65 65 66 66 67 67 69 70 72 73 74 74 74 74 74 74 74 74 73 73 72 72 73 73 73 73 73 74 74 74 74 75 74 74 74 74 75 75 75 74 74 74 73 72 72 72 71 71 70 70 69 68 67 66 65 65 64 63 63
59 59 60 59 60 60 60 60 59 59 59 59 58 57 57 57 57 58 58 59 60 60 60 60 60 60 61 61 61 60 61 61 61 62 63 65 67 69 69 70 70 71 71 71 71 71 70 69 69 69 69 69 69 69 69 70 71 71 72 72 72 73 74 74 74 74 74 74 74 73 72 73 73 72 72 71 71 70 70 69 68 67 67 66 65 64
61 61 61 61 62 63 64 63 63 62 61 60 59 59 59 59 59 60 60 60 60 59 59 59 59 60 60 61 60 60 59 59 59 60 60 60 61 63 64 65 66 66 66 66 67 67 67 66 66 65 65 65 65 65 65 66 67 68 69 69 69 70 72 72 72 72 71 71 71 71 70 71 71 71 70 70 70 70 69 69 68 68 68 68 68 67
63 63 63 64 66 67 67 66 64 64 63 62 62 62 61 62 62 62 62 62 61 61 61 62 62 62 62 62 62 62 61 61 61 61 61 61 61 61 61 61 62 63 63 64 64 65 65 65 65 64 64 64 64 64 64 65 66 66 67 67 67 67 68 69 68 68 68 67 67 66 66 66 67 67 67 67 67 67 66 66 66 66 67 68 69 69
66 65 65 66 68 68 68 67 65 64 64 64 64 64 64 64 65 65 65 64 63 64 65 65 65 65 64 64 64 64 63 63 63 63 62 62 62 62 61 61 62 62 62 63 63 63 63 64 64 64 65 65 65 65 65 65 66 66 66 66 66 66 66 66 66 66 66 65 65 64 64 64 64 64 64 64 64 63 62 61 61 62 63 65 66 67
68 67 67 68 69 70 71 70 68 65 64 64 66 67 67 68 69 69 67 65 66 68 69 68 67 67 67 67 66 66 66 66 65 65 64 64 63 63 63 63 62 63 63 63 63 63 63 63 64 64 65 66 66 66 67 67 67 67 67 67 67 68 67 66 65 65 65 65 65 65 64 64 64 64 64 64 63 62 60 59 58 59 60 61 63 64
69 69 70 70 71 72 73 72 70 67 65 66 68 69 70 71 71 70 69 69 70 72 72 71 70 70 70 70 70 70 70 69 69 68 68 67 67 66 66 66 65 65 65 65 65 65 65 65 65 66 66 67 67 68 68 68 68 68 68 68 69 69 69 68 67 67 66 66 67 67 67 66 66 65 65 64 64 63 62 60 59 58 59 60 61 63
69 70 71 71 72 73 74 73 71 68 67 69 70 71 72 73 72 72 72 73 73 74 74 74 74 73 73 73 73 73 73 72 72 72 72 71 71 71 71 70 70 69 69 69 69 69 69 69 69 69 69 69 69 69 69 69 70 70 70 70 70 71 70 69 69 69 68 68 69 69 69 69 69 68 68 67 66 65 65 63 62 61 60 60 62 63
68 69 70 71 72 73 74 74 73 70 69 71 72 73 74 74 73 73 74 75 75 76 76 76 76 76 76 76 76 76 75 75 75 75 75 75 75 75 75 74 74 74 74 74 74 73 73 73 73 72 72 72 72 71 71 71 71 71 72 72 73 73 72 71 71 71 71 71 71 72 72 72 72 72 72 71 70 69 69 68 66 65 64 64 64 65
66 67 69 70 71 72 73 73 73 71 71 72 73 74 75 75 75 75 75 76 76 77 77 78 78 78 78 78 78 78 78 78 78 77 77 77 77 77 78 77 77 77 77 78 78 78 77 77 77 76 76 75 74 73 73 72 72 72 73 74 75 75 74 74 74 73 73 73 74 74 75 75 75 75 75 75 75 74 73 72 71 70 69 69 69 69
65 66 67 68 69 70 71 72 72 71 71 71 72 74 75 75 76 76 77 77 78 78 78 79 79 80 80 80 80 80 80 80 80 80 80 80 80 80 80 79 80 80 80 81 81 81 80 79 78 78 77 77 76 75 74 74 73 73 74 75 76 76 76 76 76 76 76 76 77 77 77 78 78 78 78 78 78 78 77 77 76 75 75 75 75 74
64 65 66 67 67 68 69 69 70 70 70 70 71 72 74 75 76 77 77 78 78 79 79 80 80 81 81 82 82 83 83 83 83 83 83 83 83 83 82 82 83 83 84 84 84 83 82 81 79 78 78 78 78 77 76 76 75 74 74 75 76 76 76 76 76 76 77 78 79 80 80 80 81 82 82 82 82 82 81 81 80 79 79 81 81 78
63 64 65 66 66 67 67 68 68 68 68 69 69 70 71 73 74 75 76 78 79 79 80 80 81 81 82 83 83 84 85 85 85 85 85 85 85 85 85 85 86 86 87 87 87 86 84 83 82 82 82 82 83 82 80 79 78 76 75 75 75 75 75 75 75 75 76 77 78 79 80 81 82 83 84 85 85 85 85 85 84 83 83 84 85 83
58 60 62 64 65 66 67 67 67 67 68 68 68 69 70 70 71 73 74 75 77 78 79 80 81 82 82 83 84 85 85 86 86 86 86 86 86 86 86 87 87 88 88 88 87 86 86 86 86 86 85 85 84 84 83 82 81 80 79 78 77 77 76 76 76 77 77 78 78 79 80 81 82 83 84 85 86 87 87 87 87 87 86 86 86 86
52 54 56 59 61 62 64 65 66 67 67 68 69 70 70 70 71 72 72 73 74 75 76 78 79 80 81 82 83 83 84 84 85 85 85 86 86 86 87 87 87 88 88 88 87 87 87 87 87 86 86 85 84 84 84 84 84 83 81 80 79 79 78 79 79 79 80 81 81 81 82 82 82 83 83 84 84 85 86 87 88 88 87 87 87 87
48 50 51 53 55 57 58 60 62 64 65 66 68 69 70 70 71 71 72 72 73 73 74 75 76 77 78 79 80 81 82 82 83 83 84 85 86 86 86 87 87 86 86 87 87 87 87 87 87 87 87 86 85 85 84 84 83 82 81 79 78 77 77 77 78 79 80 81 83 83 84 84 84 84 84 85 85 85 85 86 86 87 87 86 87 88
46 47 49 50 51 52 53 55 56 58 59 60 62 64 65 66 67 68 69 70 71 71 72 72 73 74 75 76 77 78 79 81 81 82 83 84 84 85 85 85 85 85 85 85 86 86 86 86 86 86 86 85 85 84 83 82 81 80 78 77 76 74 73 73 73 74 76 78 79 81 82 82 82 83 84 85 85 86 86 85 85 86 86 85 86 88
Wind_Direction
246 246 247 247 249 251 252 253 253 253 253 253 254 254 254 255 256 257 258 258 259 259 259 259 259 260 261 262 263 264 264 264 265 266 267 268 269 270 270 271 271 271 271 271 271 271 271 271 270 270 271 272 274 275 277 278 280 282 284 285 287 288 288 289 289 290 290 290 289 289 288 286 284 281 278 278 277 276 274 268 261 254 250 249 249 250
244 245 247 248 250 251 251 251 251 251 252 252 252 253 253 254 255 257 257 258 258 259 260 260 260 261 262 263 264 264 264 264 264 266 267 268 268 268 268 268 269 269 269 269 269 270 270 270 270 271 272 274 276 277 278 279 280 281 283 285 286 287 287 288 288 289 290 290 290 290 290 288 285 282 279 277 275 270 266 259 252 250 249 249 247 247
244 245 247 248 248 249 249 249 250 251 251 251 251 252 253 254 255 256 257 258 258 259 260 260 261 261 261 262 263 263 263 263 264 265 266 266 266 267 267 267 268 268 268 268 269 269 269 270 271 272 274 275 276 277 278 279 280 280 282 283 284 285 286 287 287 287 287 287 286 284 284 285 285 284 280 277 274 268 262 256 250 248 249 250 250 252
244 245 245 246 246 247 248 249 250 250 250 250 251 252 253 254 255 256 257 257 258 259 260 260 261 261 261 261 262 262 262 262 263 263 264 264 265 265 266 266 267 267 267 268 269 269 270 271 271 272 274 275 275 275 276 277 278 279 280 281 282 283 284 285 285 284 284 283 282 280 277 277 278 278 278 276 275 272 268 262 256 253 254 257 260 262
243 244 244 245 246 247 248 248 249 249 249 250 251 252 253 254 255 256 257 258 259 260 261 261 262 262 262 262 262 262 262 262 262 263 263 263 264 264 265 266 266 267 267 268 269 271 272 272 272 272 272 273 273 274 274 275 276 277 278 279 279 280 281 281 281 281 281 281 280 280 277 274 272 272 273 272 272 271 270 267 263 260 260 261 262 264
243 243 244 245 245 246 247 248 248 248 249 250 251 252 254 255 257 258 258 259 260 260 261 261 262 262 262 262 262 262 262 262 262 262 262 262 263 264 265 266 267 268 268 269 270 271 271 271 271 271 272 272 273 273 273 274 275 275 276 276 277 278 278 279 280 280 280 280 279 279 278 276 273 271 271 270 270 268 266 264 263 262 262 262 262 263
242 243 244 244 245 245 246 247 247 248 249 250 251 253 256 257 258 259 259 259 260 260 260 261 261 261 261 261 261 260 261 261 261 261 261 262 263 264 265 266 267 268 269 269 270 270 269 270 270 271 272 273 273 274 274 274 274 275 275 275 276 276 277 278 279 279 279 279 278 278 277 275 274 273 272 272 272 270 267 265 264 264 264 264 265 266
242 243 244 244 245 245 245 246 247 248 249 251 253 255 256 258 258 259 259 259 259 259 259 260 260 259 259 259 260 260 259 259 259 260 261 262 263 263 263 264 265 266 267 268 268 269 269 269 271 272 273 273 273 273 273 274 275 276 276 276 276 276 277 278 278 278 278 277 277 276 275 274 273 273 273 273 273 272 270 268 267 267 267 268 268 269
242 243 243 244 245 245 245 246 247 248 250 251 253 255 256 257 258 258 258 259 259 259 259 259 259 259 258 258 259 258 258 258 259 260 260 261 261 261 261 262 263 263 264 266 267 268 269 270 272 272 272 272 272 272 273 274 275 276 276 276 276 277 278 278 278 277 276 275 274 274 273 273 273 273 274 274 274 274 273 272 272 271 271 271 272 272
241 241 242 243 243 244 244 245 246 247 249 250 252 253 255 256 256 257 257 258 258 258 258 258 258 258 257 257 257 258 259 259 259 260 260 259 260 260 260 261 261 262 263 265 266 268 270 270 271 271 271 272 273 273 273 274 274 274 274 274 275 276 277 277 276 275 274 273 273 273 273 273 273 273 272 273 273 274 275 275 274 273 273 272 272 272
240 240 240 241 241 242 243 244 245 246 248 249 251 252 254 254 255 256 256 257 257 257 257 257 256 256 256 256 256 257 258 258 259 259 259 259 259 259 260 260 260 261 262 264 266 267 269 270 271 271 271 271 273 274 273 273 273 272 272 273 274 275 275 274 273 273 273 273 272 272 271 271 271 270 270 271 272 273 273 273 272 271 271 270 270 270
239 240 240 241 241 242 243 244 245 246 247 249 250 252 253 253 254 255 256 256 256 256 256 255 255 255 255 255 255 256 257 258 258 259 259 259 258 258 259 259 260 261 261 263 264 266 268 269 270 270 270 270 271 273 273 272 272 272 272 272 273 274 274 273 273 272 272 272 272 271 271 270 270 271 272 272 273 273 273 273 272 271 271 270 270 270
239 240 241 242 243 244 245 245 246 246 247 248 250 251 252 253 253 254 255 255 255 255 254 254 254 254 254 254 254 255 256 256 257 258 258 258 257 257 258 259 260 261 262 262 263 265 266 268 270 272 273 273 274 275 275 274 273 272 272 273 274 274 274 274 274 274 273 273 273 273 272 271 271 272 273 272 272 272 272 272 272 273 274 274 274 274
240 241 242 242 243 244 245 245 246 246 247 248 249 251 252 253 253 253 254 254 253 253 253 253 253 254 254 254 253 254 255 255 256 256 256 257 256 256 257 258 259 260 261 262 262 264 265 269 273 275 279 284 283 280 276 273 272 271 272 273 273 274 275 276 275 273 273 273 273 273 272 272 272 271 271 271 270 269 268 269 271 273 274 275 275 274
241 241 241 242 242 243 244 244 245 246 247 248 250 251 252 252 252 252 252 252 251 252 252 253 253 254 253 253 252 252 253 254 255 255 255 255 255 256 256 256 257 258 259 259 260 262 265 271 274 278 288 295 291 283 274 269 269 270 269 269 270 272 273 272 270 269 271 273 273 271 271 273 273 271 271 271 270 269 268 268 270 271 271 271 271 271
241 241 241 242 242 243 244 244 245 246 247 248 249 250 251 251 251 251 251 251 251 251 251 252 252 252 252 251 251 252 253 253 254 254 254 254 255 255 255 255 255 256 258 258 260 262 264 267 269 272 276 267 266 270 266 264 267 267 265 265 267 269 264 261 263 266 271 275 277 276 275 275 274 272 273 273 272 271 270 270 270 270 270 270 270 270
241 242 241 242 243 244 245 246 246 247 247 248 249 250 250 250 250 250 250 250 250 251 251 251 250 250 251 252 252 253 253 252 252 252 253 253 254 255 255 255 254 254 256 258 260 261 262 264 267 267 253 232 234 247 255 261 264 262 260 259 259 260 257 257 262 267 269 270 274 277 277 276 276 275 275 276 277 276 274 273 272 272 273 273 273 272
242 242 242 242 242 243 244 245 246 247 247 248 248 249 250 250 250 250 250 250 250 251 250 250 249 249 250 251 252 252 251 251 251 252 253 254 254 254 253 253 253 253 253 254 255 256 257 256 255 254 245 233 231 240 252 260 261 258 257 249 237 242 248 253 258 261 261 263 266 270 272 273 275 276 277 277 279 279 279 277 275 275 276 275 274 274
241 242 243 242 242 242 242 244 244 245 245 246 246 247 249 249 249 249 249 249 249 249 249 249 249 249 250 251 251 251 251 251 251 252 253 253 253 252 253 253 253 252 251 252 252 251 248 240 233 235 236 233 234 242 252 257 257 257 256 248 234 233 241 247 251 253 257 262 264 267 270 271 271 273 274 275 276 276 277 277 277 277 276 275 275 275
242 242 242 243 243 242 242 243 244 244 244 245 245 246 247 248 248 248 248 248 247 247 247 247 247 247 248 249 249 250 251 251 251 251 252 252 253 254 255 256 255 253 251 250 250 249 246 239 232 232 235 234 234 240 246 251 254 255 255 253 244 238 241 246 248 251 260 266 266 266 268 270 270 271 272 273 274 273 273 274 276 277 276 276 276 276
243 243 243 243 243 243 243 243 244 244 243 244 244 245 245 246 246 247 247 247 246 245 245 245 245 245 246 246 247 249 250 250 251 251 252 253 254 255 256 257 257 255 251 248 245 244 243 239 233 232 235 237 237 239 243 247 251 254 255 257 254 248 248 249 247 253 264 270 268 266 266 267 267 268 269 270 271 272 271 271 273 274 274 274 275 275
244 244 244 244 244 245 244 243 244 244 244 244 244 245 245 246 246 246 246 247 247 246 245 245 244 244 245 246 246 248 249 250 250 251 252 252 254 255 256 257 257 257 254 249 244 240 240 241 238 234 234 236 238 240 242 244 248 253 257 260 258 254 254 251 248 254 266 270 267 265 266 267 267 268 268 267 267 268 268 268 270 271 270 270 271 271
244 244 244 245 245 246 246 245 245 244 244 244 244 244 245 246 245 245 245 245 246 246 246 246 246 246 246 246 247 248 249 250 250 251 251 252 254 255 256 257 257 257 256 253 248 243 241 243 245 243 241 241 243 244 246 247 248 251 256 260 260 258 259 258 255 259 265 266 264 263 265 267 268 269 268 267 266 265 265 265 267 268 269 269 270 271
244 244 244 245 244 244 245 245 245 245 244 244 244 244 244 245 245 245 245 245 246 247 247 248 248 248 248 248 248 249 249 251 251 252 252 253 253 255 256 256 256 256 255 254 251 248 245 244 246 248 248 249 249 250 250 251 250 249 252 255 257 259 263 263 261 261 262 261 262 263 265 266 267 268 268 268 267 266 264 262 263 264 267 269 270 270
244 244 244 244 244 243 243 244 243 243 243 243 242 242 242 243 244 245 246 246 247 247 248 249 249 249 249 250 250 251 252 253 254 254 254 254 254 254 255 256 255 255 255 254 252 251 249 247 247 248 250 251 252 252 252 251 250 249 250 252 254 257 260 259 258 259 260 261 263 265 266 267 268 269 269 269 269 268 266 264 261 260 261 263 265 268
243 244 244 244 245 244 243 243 242 241 241 242 242 242 242 244 245 246 247 247 247 248 248 249 250 251 252 253 253 254 254 255 256 256 256 256 256 255 256 256 256 256 255 254 253 252 251 250 249 249 251 252 253 254 254 253 252 252 253 255 256 258 259 259 259 260 261 263 265 266 268 269 269 270 270 270 270 269 268 267 264 261 259 259 260 264
243 244 244 244 245 245 244 244 244 244 244 244 244 244 244 245 246 247 248 248 248 248 249 250 251 253 254 254 255 255 256 256 256 257 257 258 258 258 257 257 257 256 256 255 254 253 252 251 251 251 252 253 254 255 256 256 256 256 258 259 260 260 261 261 262 263 264 265 267 268 269 269 270 270 270 270 270 269 268 267 266 264 261 260 260 261
242 244 244 243 244 245 245 245 245 246 246 246 246 246 246 246 247 247 248 249 249 249 249 250 251 253 254 255 256 256 257 257 257 257 257 258 259 259 259 258 258 257 256 256 255 254 253 252 252 252 253 254 255 256 257 258 259 260 260 261 262 262 263 263 264 264 265 266 267 268 269 269 270 270 270 269 269 268 267 266 265 264 263 261 261 261
240 242 244 244 243 244 245 245 246 246 247 247 247 247 247 247 247 248 248 248 249 249 249 250 251 252 254 255 256 257 257 258 258 258 257 258 258 259 259 259 258 258 257 257 255 255 254 254 253 254 254 255 256 258 259 260 261 262 263 263 264 264 264 264 264 265 266 266 266 267 267 268 269 269 269 269 268 267 266 265 264 262 261 260 260 260
240 242 243 244 244 244 244 245 245 246 246 247 247 247 247 248 248 249 249 250 250 250 251 251 252 253 254 255 256 257 258 258 258 258 258 258 258 258 258 258 258 258 258 258 257 256 255 255 255 255 256 257 258 259 260 261 261 262 263 264 265 265 265 265 265 266 266 266 267 266 267 267 267 267 267 267 267 266 265 264 263 261 260 259 259 259
242 242 243 244 245 245 245 246 246 246 246 246 246 247 248 248 249 250 251 252 252 252 253 253 253 254 254 255 256 257 257 257 258 258 258 258 258 257 257 257 257 258 258 258 258 258 257 257 257 257 257 258 258 259 260 260 261 262 263 264 265 265 266 267 267 267 266 266 267 266 266 266 266 266 266 265 265 265 264 263 262 261 260 259 258 258
245 246 246 246 246 247 247 247 248 249 249 250 251 251 251 252 252 252 253 253 254 254 254 254 255 255 255 255 256 256 257 258 258 258 258 259 259 259 259 258 258 258 258 258 258 258 259 259 259 259 259 259 260 260 260 261 261 262 262 263 264 265 266 266 267 267 267 266 266 266 265 265 265 265 264 264 263 263 262 262 261 260 260 259 259 258
247 248 249 249 249 249 249 249 249 251 252 254 255 255 255 255 256 256 256 257 257 257 257 256 256 256 256 257 257 257 258 258 258 259 259 260 260 260 260 260 260 260 260 260 260 260 260 260 260 260 261 261 261 261 262 262 262 262 262 262 263 264 264 265 265 265 265 265 265 265 264 264 263 263 263 262 261 261 260 260 260 259 259 259 258 258
247 247 248 250 251 252 252 252 252 253 255 256 256 257 256 255 255 256 256 257 257 257 257 257 257 257 257 257 257 257 257 257 258 258 259 259 259 259 260 260 261 261 262 262 262 262 262 262 262 262 262 262 262 263 263 263 263 263 263 263 263 264 264 264 263 263 263 263 264 264 263 263 263 262 261 261 260 259 259 258 258 258 258 258 258 257
248 247 247 248 249 251 253 254 254 255 256 256 256 257 257 256 255 255 255 255 256 256 256 257 257 257 257 257 256 255 255 255 255 256 257 257 258 259 259 260 261 262 262 263 264 264 264 264 264 264 264 264 264 264 264 264 263 263 263 263 264 264 263 263 263 263 263 263 264 264 264 264 263 262 261 260 260 259 258 257 257 257 257 257 257 257
249 249 248 247 248 249 250 252 253 253 254 255 255 256 258 258 257 256 256 255 256 256 257 257 258 258 258 257 257 256 255 254 253 254 255 256 257 258 260 260 261 261 262 263 264 265 266 266 266 266 266 266 266 265 265 265 264 264 263 263 263 263 263 263 263 263 264 264 264 264 264 263 263 262 262 261 260 259 258 257 257 256 256 256 256 256
250 250 250 249 248 247 247 247 249 250 252 254 255 256 257 258 258 258 258 258 258 258 258 258 259 258 258 259 259 258 258 257 256 255 255 255 256 257 258 259 259 260 261 261 262 264 265 265 266 266 266 265 265 265 265 264 264 264 264 264 263 263 263 263 263 263 263 263 263 263 262 262 261 261 261 260 260 259 258 258 257 256 256 255 254 254
250 251 251 251 250 249 249 248 248 249 251 252 254 255 256 257 257 258 259 259 260 260 260 260 260 259 259 259 259 259 259 258 258 257 256 256 255 255 255 255 255 255 256 257 258 259 261 262 263 264 264 264 264 264 264 264 264 264 264 265 264 264 264 264 265 264 264 263 263 262 261 261 261 260 259 259 258 258 258 257 257 256 256 256 255 254
250 250 250 251 252 252 253 252 251 250 250 251 252 253 254 255 256 256 257 258 260 261 261 261 261 262 262 262 262 262 262 261 260 259 259 258 257 256 255 254 253 253 253 254 254 255 256 258 260 261 262 263 264 264 264 265 265 265 265 265 265 265 265 264 264 264 265 264 264 263 262 261 261 261 260 260 259 259 258 257 257 257 257 256 256 256
248 249 249 250 251 252 253 253 253 252 251 251 252 252 253 253 255 256 257 258 259 259 259 260 262 262 263 264 265 265 265 265 265 265 264 263 262 261 260 259 258 257 256 256 255 255 255 256 257 258 259 260 261 262 262 263 263 264 264 265 265 265 265 265 264 264 264 265 265 264 264 263 262 262 262 261 261 261 260 259 258 257 257 257 257 257
246 247 248 248 249 250 251 252 252 252 252 252 252 252 253 254 255 256 257 258 258 259 260 261 262 262 263 263 264 265 266 267 267 268 268 268 268 268 267 266 265 264 263 262 261 260 260 259 259 258 258 258 258 258 259 259 260 261 261 262 262 263 264 264 264 264 264 265 265 265 265 265 264 263 263 262 262 262 261 260 258 257 257 257 257 258
246 247 247 248 249 250 251 251 251 251 251 252 252 252 253 254 255 256 256 257 258 259 260 261 261 262 263 263 264 264 265 266 267 267 268 268 269 269 269 269 269 268 268 267 267 266 265 264 263 262 261 260 259 259 259 259 259 259 260 260 260 261 261 262 263 264 264 265 265 265 265 265 265 265 264 264 263 262 262 261 259 258 257 256 257 257
247 247 248 249 249 250 251 252 252 251 250 251 251 252 253 253 254 255 256 257 258 259 260 260 261 262 262 263 264 264 265 265 266 266 267 267 268 268 269 269 269 269 269 269 269 268 268 267 266 265 264 263 262 261 260 260 260 260 260 260 260 260 260 260 261 262 263 263 264 265 265 265 265 266 266 266 265 264 264 263 262 260 259 257 256 257
248 248 248 249 249 251 252 252 253 252 251 251 252 253 253 254 254 255 256 256 257 258 260 261 262 262 263 264 265 265 265 266 266 267 267 267 267 268 268 269 269 269 269 269 269 269 268 268 268 268 267 267 266 265 265 264 263 262 262 262 262 261 261 260 260 260 260 261 262 262 263 264 264 264 265 265 265 265 265 265 264 263 262 261 259 258
249 249 250 250 250 250 251 252 253 253 253 252 252 253 253 254 255 255 256 256 257 258 259 260 261 262 264 264 265 266 267 267 267 268 268 268 268 269 269 269 269 270 270 270 270 269 269 269 269 269 269 269 269 268 267 266 265 264 263 262 262 261 261 260 260 259 259 259 259 259 260 261 262 263 263 263 263 264 264 264 264 264 264 264 262 260
250 250 251 251 251 251 251 252 253 253 253 253 253 253 253 254 254 255 256 256 257 258 258 259 260 261 262 263 264 265 266 267 267 268 268 269 270 270 271 271 271 271 272 272 272 272 272 272 272 272 273 273 272 271 270 268 267 265 264 263 263 262 261 260 260 259 258 258 258 258 258 258 259 260 261 261 262 262 262 262 263 263 263 264 263 263
249 250 251 252 253 253 253 253 253 254 254 253 253 253 253 254 254 254 255 256 256 257 258 259 260 260 261 262 263 264 264 265 266 267 267 268 269 270 270 271 271 272 272 272 273 273 274 275 275 275 275 274 274 273 272 272 271 269 268 267 266 265 264 263 262 261 260 259 258 258 257 257 257 257 258 259 260 260 261 261 261 261 261 262 263 264
249 250 250 251 252 253 254 255 255 255 256 256 256 255 255 255 254 254 255 255 255 256 257 258 258 259 260 261 262 262 263 264 265 266 267 268 268 269 270 270 271 271 271 272 273 274 274 274 274 274 274 273 273 274 274 273 273 272 271 270 269 268 267 266 265 264 264 263 261 260 259 258 258 257 257 257 257 258 259 260 260 260 260 260 261 262
253 252 252 252 252 253 253 254 255 255 256 256 257 257 257 257 256 256 256 256 256 256 256 257 257 258 259 260 261 262 263 264 265 266 267 268 268 269 269 269 270 270 271 272 273 273 273 273 273 273 273 273 273 273 273 273 272 272 271 270 269 268 268 267 266 265 265 264 263 262 261 260 260 259 258 257 257 257 257 258 259 259 259 260 260 260
255 255 254 254 254 254 254 254 254 254 254 255 255 256 256 257 257 258 258 258 258 258 258 258 258 259 260 261 262 263 263 264 265 265 266 267 267 268 268 268 269 270 270 271 271 272 272 272 273 273 273 273 273 273 273 273 272 272 271 270 269 267 266 265 265 264 263 262 262 261 260 260 259 259 259 259 259 258 257 257 258 258 259 259 260 260
255 255 255 255 255 255 255 255 255 255 256 256 257 257 258 258 259 259 259 260 260 260 260 260 260 260 261 261 262 262 263 263 264 265 265 266 266 267 267 268 269 269 270 270 270 271 271 272 272 272 273 273 273 273 273 273 272 272 272 271 270 269 267 266 264 264 263 262 261 261 260 259 259 258 258 258 259 259 259 259 259 258 258 258 259 260
Height
10582 10584 10586 10589 10591 10595 10600 10602 10605 10608 10609 10611 10612 10613 10613 10613 10613 10616 10621 10624 10625 10625 10625 10628 10630 10630 10629 10628 10630 10633 10633 10633 10631 10629 10631 10632 10634 10636 10636 10636 10637 10637 10638 10638 10640 10641 10643 10644 10644 10644 10645 10645 10646 10645 10644 10643 10642 10641 10639 10638 10637 10638 10637 10637 10636 10636 10635 10634 10633 10633 10633 10633 10633 10633 10634 10634 10635 10636 10637 10639 10640 10641 10643 10644 10646 10648
10575 10578 10581 10585 10588 10591 10594 10596 10597 10600 10602 10604 10605 10605 10606 10606 10607 10610 10615 10618 10618 10618 10619 10621 10623 10624 10624 10623 10624 10626 10627 10626 10624 10624 10626 10627 10628 10629 10629 10629 10630 10631 10631 10631 10633 10635 10637 10638 10638 10639 10639 10640 10640 10639 10638 10637 10637 10636 10634 10633 10632 10632 10632 10632 10632 10632 10631 10631 10630 10629 10629 10629 10630 10630 10631 10632 10633 10634 10635 10636 10637 10638 10639 10640 10642 10643
10570 10573 10577 10581 10583 10584 10586 10588 10590 10593 10596 10597 10597 10597 10599 10600 10602 10605 10609 10611 10611 10611 10612 10614 10616 10617 10618 10617 10618 10619 10620 10619 10618 10619 10621 10621 10622 10623 10623 10624 10624 10625 10624 10625 10626 10629 10631 10633 10633 10634 10634 10634 10634 10633 10632 10631 10631 10630 10629 10628 10627 10626 10627 10627 10627 10627 10628 10627 10627 10626 10626 10626 10626 10627 10628 10628 10630 10630 10632 10633 10634 10635 10636 10636 10638 10639
10566 10570 10572 10574 10575 10577 10580 10582 10584 10587 10588 10589 10590 10591 10593 10595 10597 10600 10603 10605 10605 10606 10606 10607 10609 10610 10611 10611 10612 10612 10613 10613 10613 10614 10615 10615 10616 10617 10617 10618 10619 10619 10619 10619 10620 10622 10625 10627 10629 10630 10630 10629 10628 10628 10627 10626 10626 10625 10624 10623 10622 10622 10622 10622 10623 10623 10624 10624 10624 10623 10623 10623 10623 10623 10624 10625 10626 10627 10628 10630 10631 10632 10632 10633 10634 10635
10562 10564 10566 10568 10570 10572 10574 10576 10578 10580 10581 10583 10584 10585 10586 10589 10592 10595 10598 10599 10599 10600 10600 10601 10603 10604 10604 10604 10605 10606 10606 10606 10607 10608 10609 10609 10611 10612 10612 10612 10613 10613 10614 10614 10615 10617 10620 10621 10623 10625 10625 10624 10623 10623 10622 10622 10621 10621 10620 10619 10618 10618 10618 10618 10618 10619 10620 10620 10620 10620 10620 10620 10620 10620 10621 10622 10623 10624 10625 10626 10627 10628 10628 10629 10629 10630
10556 10558 10560 10563 10565 10567 10568 10569 10571 10573 10575 10576 10577 10578 10581 10584 10587 10590 10592 10593 10593 10594 10594 10595 10597 10597 10597 10598 10599 10600 10600 10600 10602 10603 10603 10604 10606 10607 10607 10607 10608 10608 10608 10609 10610 10612 10613 10615 10617 10619 10619 10618 10617 10617 10617 10617 10616 10616 10615 10614 10614 10614 10614 10614 10614 10615 10616 10616 10616 10617 10617 10617 10617 10617 10618 10618 10620 10621 10622 10622 10623 10623 10624 10625 10626 10626
10551 10552 10555 10557 10559 10561 10562 10563 10565 10567 10569 10570 10571 10574 10577 10580 10582 10584 10586 10586 10587 10588 10589 10590 10590 10591 10592 10592 10593 10594 10594 10595 10596 10596 10597 10599 10601 10603 10603 10603 10603 10604 10603 10604 10605 10605 10607 10609 10611 10613 10613 10613 10612 10611 10611 10611 10611 10610 10610 10609 10609 10609 10609 10610 10610 10610 10611 10612 10612 10613 10613 10613 10613 10613 10613 10614 10615 10617 10618 10618 10619 10619 10620 10621 10622 10622
10546 10548 10550 10552 10553 10555 10556 10557 10559 10561 10563 10565 10567 10570 10573 10575 10576 10578 10580 10581 10582 10583 10583 10584 10585 10586 10587 10587 10588 10588 10589 10590 10590 10591 10593 10595 10596 10598 10598 10598 10599 10599 10599 10599 10599 10599 10601 10603 10605 10608 10608 10608 10607 10606 10606 10606 10605 10605 10605 10604 10604 10604 10605 10605 10605 10606 10606 10607 10607 10608 10608 10608 10608 10608 10609 10609 10611 10612 10613 10614 10614 10614 10615 10615 10616 10617
10541 10543 10544 10546 10547 10549 10550 10552 10555 10557 10558 10560 10562 10565 10567 10569 10571 10572 10574 10575 10577 10578 10578 10580 10580 10581 10582 10583 10583 10583 10583 10585 10585 10587 10589 10590 10592 10593 10593 10594 10594 10594 10594 10594 10593 10593 10595 10597 10600 10603 10604 10603 10602 10602 10601 10601 10601 10600 10600 10599 10599 10600 10600 10601 10601 10601 10601 10602 10602 10602 10602 10603 10603 10604 10604 10605 10606 10607 10608 10608 10609 10610 10610 10611 10611 10612
10535 10537 10538 10540 10541 10542 10544 10547 10550 10551 10553 10555 10557 10559 10561 10564 10565 10567 10569 10570 10572 10573 10574 10575 10576 10576 10577 10578 10578 10578 10578 10579 10581 10582 10584 10586 10587 10588 10589 10589 10589 10590 10590 10589 10589 10588 10589 10592 10595 10598 10600 10599 10598 10597 10597 10597 10596 10595 10595 10595 10595 10595 10596 10596 10596 10596 10596 10596 10597 10597 10597 10598 10598 10599 10599 10599 10600 10601 10602 10602 10603 10604 10605 10606 10606 10607
10529 10530 10532 10534 10535 10536 10539 10541 10544 10546 10547 10549 10551 10553 10556 10559 10561 10562 10564 10566 10567 10568 10569 10570 10571 10571 10572 10573 10574 10573 10573 10574 10576 10577 10579 10581 10582 10583 10583 10584 10584 10585 10585 10585 10585 10584 10584 10587 10590 10593 10596 10596 10594 10592 10592 10592 10591 10590 10590 10591 10592 10592 10592 10592 10591 10591 10591 10591 10592 10592 10592 10592 10592 10592 10593 10593 10594 10595 10596 10596 10597 10598 10599 10600 10602 10602
10522 10524 10526 10528 10529 10531 10534 10536 10539 10540 10542 10544 10546 10548 10551 10554 10556 10557 10558 10561 10562 10563 10564 10565 10566 10566 10567 10569 10569 10568 10568 10570 10571 10572 10574 10576 10577 10578 10578 10578 10579 10581 10582 10582 10581 10581 10581 10582 10584 10587 10590 10591 10590 10588 10587 10586 10586 10586 10586 10588 10589 10589 10588 10587 10586 10586 10586 10586 10586 10587 10587 10587 10586 10587 10588 10588 10589 10590 10591 10591 10592 10592 10594 10595 10597 10598
10516 10518 10521 10523 10525 10527 10529 10531 10533 10535 10536 10538 10540 10542 10545 10548 10551 10552 10554 10556 10557 10558 10558 10559 10561 10561 10563 10564 10564 10563 10564 10565 10566 10567 10568 10570 10571 10572 10572 10573 10574 10575 10577 10578 10577 10577 10576 10576 10579 10582 10585 10587 10587 10586 10584 10582 10581 10582 10583 10585 10586 10586 10585 10584 10583 10582 10581 10581 10581 10581 10581 10581 10582 10583 10583 10584 10585 10586 10587 10587 10587 10588 10589 10591 10592 10594
10511 10513 10515 10518 10520 10522 10524 10525 10527 10528 10530 10532 10534 10537 10540 10543 10546 10547 10549 10550 10552 10552 10552 10554 10556 10557 10558 10559 10559 10558 10559 10560 10561 10562 10563 10564 10565 10566 10567 10568 10569 10571 10572 10573 10572 10572 10571 10573 10576 10578 10582 10583 10583 10582 10580 10578 10577 10578 10580 10583 10584 10584 10583 10582 10580 10577 10576 10576 10576 10575 10576 10576 10578 10579 10579 10579 10581 10582 10584 10584 10585 10586 10587 10588 10589 10590
10505 10507 10509 10511 10513 10515 10517 10518 10520 10522 10525 10527 10529 10532 10535 10537 10540 10541 10543 10544 10546 10547 10548 10549 10551 10552 10552 10553 10553 10553 10554 10555 10555 10557 10558 10559 10560 10561 10562 10564 10565 10566 10568 10568 10568 10568 10569 10572 10574 10576 10580 10583 10583 10580 10576 10574 10573 10574 10578 10581 10583 10585 10582 10576 10572 10570 10572 10573 10571 10571 10573 10573 10573 10574 10574 10575 10576 10578 10579 10581 10582 10583 10583 10584 10585 10586
10497 10499 10502 10504 10507 10509 10510 10512 10514 10517 10520 10522 10524 10527 10528 10531 10533 10535 10537 10539 10540 10542 10544 10545 10546 10546 10546 10546 10547 10548 10549 10550 10550 10551 10552 10553 10555 10556 10557 10559 10561 10562 10563 10563 10565 10566 10568 10570 10570 10573 10578 10580 10583 10582 10575 10570 10569 10571 10575 10580 10585 10586 10578 10568 10564 10567 10571 10572 10569 10568 10570 10570 10568 10569 10570 10569 10571 10572 10574 10576 10578 10578 10578 10579 10581 10582
10490 10493 10496 10499 10501 10503 10504 10506 10509 10512 10514 10517 10519 10520 10521 10524 10527 10529 10531 10533 10534 10537 10539 10540 10540 10540 10540 10540 10542 10543 10544 10545 10544 10545 10546 10548 10549 10551 10552 10554 10556 10558 10559 10560 10561 10563 10565 10567 10567 10569 10571 10570 10572 10575 10571 10566 10566 10567 10571 10580 10587 10581 10568 10561 10563 10568 10570 10568 10566 10565 10566 10566 10565 10566 10566 10565 10565 10566 10568 10570 10572 10572 10572 10573 10575 10576
10485 10487 10490 10493 10495 10497 10498 10500 10503 10506 10509 10511 10513 10513 10514 10518 10521 10523 10524 10527 10529 10531 10532 10534 10534 10535 10534 10535 10536 10537 10537 10538 10538 10539 10541 10543 10544 10546 10547 10549 10551 10553 10554 10555 10557 10559 10561 10563 10564 10564 10564 10562 10563 10565 10562 10559 10560 10563 10567 10576 10580 10571 10560 10559 10563 10564 10563 10562 10562 10562 10562 10562 10561 10561 10561 10560 10560 10560 10562 10564 10565 10567 10567 10567 10569 10570
10479 10480 10483 10486 10488 10490 10493 10494 10497 10500 10503 10504 10506 10507 10509 10512 10514 10516 10518 10520 10523 10524 10526 10528 10528 10529 10530 10531 10532 10531 10531 10532 10533 10534 10536 10537 10539 10540 10542 10544 10546 10548 10550 10550 10552 10555 10556 10557 10558 10557 10556 10556 10557 10556 10554 10553 10554 10557 10561 10566 10569 10564 10559 10559 10560 10558 10557 10559 10560 10559 10558 10557 10556 10557 10556 10555 10555 10556 10556 10556 10558 10561 10561 10561 10563 10564
10473 10475 10476 10479 10481 10484 10487 10489 10492 10495 10496 10498 10500 10501 10503 10505 10507 10509 10511 10513 10516 10518 10520 10521 10522 10524 10525 10526 10526 10525 10525 10526 10527 10528 10530 10531 10533 10535 10537 10539 10540 10542 10544 10545 10547 10550 10551 10552 10552 10551 10550 10550 10549 10549 10548 10547 10547 10550 10554 10557 10560 10559 10558 10557 10556 10554 10554 10555 10556 10555 10554 10553 10552 10553 10552 10551 10551 10552 10552 10551 10552 10554 10555 10555 10557 10558
10468 10469 10470 10472 10475 10478 10482 10484 10486 10488 10490 10492 10494 10495 10496 10498 10500 10502 10504 10506 10509 10512 10514 10515 10517 10519 10519 10520 10520 10519 10519 10521 10521 10523 10525 10526 10527 10530 10531 10532 10533 10534 10537 10539 10542 10545 10545 10545 10545 10545 10544 10543 10543 10542 10542 10542 10542 10543 10547 10550 10552 10554 10555 10554 10552 10551 10551 10551 10551 10550 10550 10549 10549 10549 10549 10548 10547 10547 10547 10546 10546 10548 10549 10549 10550 10551
10462 10463 10464 10466 10469 10472 10476 10478 10480 10482 10484 10486 10487 10488 10490 10492 10493 10495 10497 10499 10502 10504 10507 10509 10511 10512 10513 10514 10514 10514 10514 10515 10515 10517 10519 10520 10522 10523 10525 10526 10526 10527 10529 10532 10536 10538 10538 10537 10537 10538 10538 10536 10536 10536 10536 10537 10537 10537 10540 10543 10546 10548 10550 10549 10548 10548 10548 10547 10546 10545 10545 10545 10545 10544 10544 10544 10543 10542 10541 10540 10541 10542 10543 10543 10544 10544
10456 10457 10458 10461 10464 10467 10470 10472 10475 10477 10478 10479 10481 10482 10483 10485 10486 10488 10490 10492 10494 10496 10499 10502 10504 10506 10507 10508 10508 10508 10508 10509 10509 10511 10512 10514 10516 10517 10519 10520 10521 10521 10522 10525 10528 10531 10532 10532 10532 10532 10532 10532 10532 10532 10533 10533 10533 10533 10534 10537 10539 10542 10543 10543 10543 10543 10544 10542 10540 10539 10540 10540 10540 10539 10539 10539 10539 10538 10537 10535 10535 10535 10536 10537 10537 10537
10450 10452 10453 10455 10459 10461 10464 10466 10469 10470 10472 10473 10475 10476 10477 10478 10479 10481 10483 10485 10487 10490 10493 10495 10497 10499 10500 10501 10502 10502 10503 10503 10503 10505 10506 10508 10510 10511 10512 10514 10515 10515 10516 10518 10520 10523 10525 10526 10526 10526 10526 10526 10526 10527 10528 10528 10528 10529 10529 10531 10532 10534 10535 10536 10536 10537 10537 10536 10534 10533 10533 10533 10533 10533 10532 10532 10533 10534 10533 10532 10531 10530 10531 10531 10530 10530
10444 10445 10447 10449 10452 10456 10459 10461 10462 10464 10464 10465 10467 10469 10470 10471 10472 10474 10477 10479 10482 10484 10486 10488 10490 10492 10492 10494 10495 10496 10497 10497 10497 10498 10500 10501 10503 10505 10505 10507 10509 10510 10511 10512 10514 10516 10517 10518 10518 10518 10518 10518 10519 10520 10521 10522 10522 10523 10524 10525 10526 10527 10528 10529 10529 10529 10529 10528 10527 10526 10525 10526 10526 10526 10525 10525 10526 10526 10527 10526 10526 10526 10526 10526 10526 10525
10437 10438 10441 10444 10447 10450 10452 10453 10454 10455 10456 10457 10459 10462 10464 10465 10467 10469 10471 10473 10476 10478 10480 10482 10483 10484 10485 10487 10489 10490 10490 10491 10491 10491 10492 10494 10496 10497 10499 10501 10502 10503 10504 10505 10507 10509 10510 10511 10511 10511 10511 10511 10512 10513 10514 10516 10517 10517 10518 10518 10519 10520 10521 10522 10521 10522 10521 10521 10520 10519 10518 10518 10518 10518 10518 10518 10518 10518 10518 10519 10519 10520 10521 10521 10521 10521
10430 10431 10434 10438 10440 10442 10444 10446 10446 10448 10449 10451 10453 10456 10458 10460 10461 10463 10465 10468 10470 10471 10473 10476 10477 10478 10478 10479 10481 10482 10483 10484 10484 10485 10485 10486 10488 10489 10491 10493 10494 10495 10496 10498 10499 10501 10502 10503 10503 10503 10504 10504 10505 10506 10507 10509 10510 10510 10510 10510 10511 10511 10512 10513 10513 10514 10514 10513 10513 10512 10510 10510 10510 10510 10510 10511 10511 10511 10511 10511 10512 10513 10513 10514 10515 10515
10424 10423 10426 10430 10432 10434 10437 10439 10440 10441 10442 10445 10447 10449 10452 10453 10455 10457 10458 10460 10463 10464 10466 10469 10470 10471 10471 10472 10473 10474 10475 10476 10477 10478 10479 10479 10480 10481 10483 10484 10485 10486 10487 10489 10491 10492 10493 10494 10495 10495 10496 10497 10497 10498 10499 10500 10501 10502 10502 10502 10502 10503 10503 10504 10505 10506 10507 10507 10506 10505 10503 10502 10502 10502 10502 10502 10503 10503 10504 10504 10505 10506 10506 10506 10507 10507
10416 10416 10419 10422 10425 10427 10429 10431 10433 10434 10435 10438 10440 10442 10444 10446 10447 10449 10450 10452 10454 10456 10459 10461 10463 10464 10464 10464 10465 10466 10468 10468 10469 10470 10472 10472 10473 10474 10475 10476 10476 10477 10478 10480 10482 10483 10484 10485 10486 10487 10488 10489 10490 10491 10492 10492 10493 10493 10493 10493 10494 10494 10495 10496 10498 10498 10499 10499 10499 10498 10496 10495 10494 10493 10493 10494 10494 10495 10496 10497 10498 10498 10499 10499 10499 10499
10409 10411 10413 10415 10417 10420 10422 10423 10425 10426 10427 10430 10432 10434 10436 10438 10439 10441 10443 10445 10447 10449 10452 10454 10455 10457 10457 10458 10458 10459 10460 10460 10461 10462 10464 10465 10466 10466 10467 10468 10468 10469 10470 10471 10473 10474 10476 10477 10478 10479 10481 10481 10482 10483 10484 10484 10485 10485 10485 10485 10485 10485 10487 10488 10489 10490 10489 10489 10489 10489 10488 10487 10487 10486 10485 10485 10485 10487 10488 10489 10490 10491 10491 10492 10492 10492
10404 10405 10407 10408 10410 10412 10414 10416 10416 10417 10419 10421 10424 10427 10429 10431 10433 10434 10436 10438 10439 10442 10444 10446 10448 10449 10450 10451 10451 10451 10452 10452 10453 10454 10455 10456 10457 10458 10459 10460 10460 10461 10462 10464 10465 10466 10467 10469 10470 10471 10472 10473 10473 10474 10475 10475 10476 10477 10477 10476 10476 10477 10478 10479 10480 10480 10480 10480 10479 10479 10479 10479 10479 10478 10478 10478 10478 10479 10480 10481 10482 10483 10483 10484 10485 10486
10399 10399 10401 10402 10403 10405 10407 10408 10409 10409 10411 10415 10418 10421 10423 10424 10426 10427 10429 10430 10432 10434 10436 10439 10440 10440 10442 10443 10443 10443 10443 10444 10444 10445 10446 10447 10448 10449 10450 10451 10452 10453 10454 10456 10457 10458 10459 10461 10462 10462 10463 10464 10465 10465 10466 10467 10468 10469 10469 10468 10468 10469 10469 10470 10470 10470 10470 10470 10470 10470 10470 10470 10470 10470 10470 10470 10471 10471 10472 10472 10473 10474 10475 10476 10477 10478
10393 10394 10395 10395 10397 10399 10400 10401 10402 10402 10406 10410 10412 10414 10417 10418 10419 10420 10421 10423 10424 10426 10428 10430 10431 10432 10434 10434 10434 10435 10435 10435 10435 10435 10436 10438 10439 10440 10440 10442 10443 10444 10445 10446 10448 10449 10451 10452 10453 10454 10454 10455 10456 10456 10457 10458 10458 10459 10459 10459 10460 10460 10461 10461 10461 10460 10460 10460 10461 10461 10461 10461 10462 10461 10461 10462 10462 10463 10464 10464 10465 10466 10466 10467 10469 10470
10387 10388 10388 10389 10391 10392 10393 10394 10395 10398 10402 10404 10404 10406 10409 10411 10411 10412 10413 10413 10415 10417 10418 10419 10421 10423 10424 10425 10425 10426 10426 10426 10426 10427 10428 10429 10429 10429 10430 10432 10433 10434 10435 10436 10437 10440 10441 10443 10444 10444 10445 10445 10446 10447 10448 10449 10449 10448 10449 10449 10450 10451 10451 10451 10451 10451 10451 10451 10451 10451 10451 10452 10452 10453 10453 10453 10453 10454 10455 10456 10457 10457 10458 10459 10460 10462
10378 10380 10381 10383 10384 10385 10386 10387 10390 10394 10396 10395 10396 10398 10400 10402 10403 10404 10404 10404 10405 10406 10408 10410 10412 10413 10414 10415 10415 10416 10416 10417 10418 10419 10419 10419 10419 10420 10421 10423 10424 10425 10426 10426 10428 10429 10431 10433 10434 10434 10434 10435 10436 10437 10438 10438 10438 10438 10438 10439 10440 10440 10440 10440 10440 10440 10441 10441 10441 10441 10442 10442 10442 10442 10443 10443 10444 10445 10446 10447 10448 10449 10450 10451 10452 10453
10369 10371 10373 10376 10378 10378 10379 10381 10383 10386 10386 10386 10389 10391 10391 10392 10393 10394 10394 10395 10396 10398 10399 10401 10403 10404 10405 10405 10406 10406 10408 10409 10410 10411 10411 10411 10411 10412 10414 10415 10416 10417 10417 10418 10419 10420 10421 10423 10424 10423 10424 10425 10425 10426 10426 10427 10427 10428 10428 10428 10429 10429 10428 10428 10428 10430 10430 10431 10431 10432 10432 10432 10431 10431 10432 10433 10433 10435 10436 10438 10439 10440 10441 10442 10443 10445
10361 10363 10366 10368 10369 10369 10370 10372 10374 10377 10379 10381 10382 10382 10382 10383 10383 10384 10385 10386 10388 10390 10392 10393 10394 10394 10395 10396 10396 10398 10399 10400 10401 10402 10403 10404 10405 10406 10407 10408 10409 10410 10410 10411 10411 10412 10412 10413 10414 10414 10414 10414 10414 10415 10415 10416 10416 10416 10416 10417 10418 10417 10417 10416 10417 10418 10419 10419 10420 10420 10421 10421 10420 10421 10422 10422 10423 10424 10426 10428 10430 10430 10431 10431 10433 10434
10353 10355 10357 10358 10357 10358 10361 10364 10368 10371 10373 10374 10374 10374 10375 10374 10375 10376 10376 10377 10380 10382 10382 10383 10383 10384 10385 10386 10387 10388 10390 10391 10392 10393 10394 10396 10397 10398 10399 10400 10401 10402 10402 10403 10403 10403 10403 10403 10403 10404 10403 10403 10404 10404 10404 10405 10405 10405 10406 10406 10406 10406 10406 10406 10406 10407 10407 10408 10408 10409 10410 10410 10410 10410 10411 10412 10413 10415 10417 10419 10420 10420 10420 10421 10422 10423
10344 10347 10349 10348 10348 10350 10352 10356 10361 10364 10366 10367 10367 10366 10366 10366 10366 10366 10368 10371 10374 10372 10371 10371 10372 10373 10375 10376 10377 10378 10379 10381 10382 10384 10385 10386 10387 10388 10389 10390 10391 10392 10393 10394 10394 10394 10394 10394 10394 10394 10394 10393 10393 10394 10394 10394 10394 10395 10395 10396 10396 10396 10396 10397 10397 10397 10397 10397 10398 10399 10400 10400 10400 10400 10401 10402 10403 10405 10407 10409 10410 10410 10410 10410 10411 10412
10335 10338 10340 10339 10340 10342 10342 10344 10350 10356 10360 10361 10359 10358 10357 10357 10356 10357 10361 10365 10365 10361 10359 10361 10363 10364 10366 10367 10367 10368 10369 10370 10372 10373 10375 10376 10377 10378 10379 10380 10381 10382 10383 10384 10384 10385 10385 10385 10385 10385 10385 10385 10384 10384 10385 10385 10385 10385 10386 10386 10386 10385 10386 10388 10389 10389 10389 10389 10389 10389 10389 10389 10390 10391 10391 10392 10394 10396 10398 10400 10401 10401 10401 10401 10401 10402
10327 10328 10329 10330 10331 10332 10333 10335 10340 10346 10351 10352 10350 10349 10349 10348 10349 10351 10355 10355 10353 10351 10351 10353 10354 10356 10357 10358 10358 10359 10360 10361 10362 10363 10364 10365 10366 10366 10367 10368 10369 10370 10371 10372 10373 10373 10374 10374 10374 10374 10375 10375 10375 10375 10376 10377 10377 10376 10377 10378 10377 10376 10377 10379 10380 10381 10381 10380 10380 10380 10380 10379 10380 10381 10382 10383 10384 10386 10388 10390 10391 10392 10392 10392 10392 10392
10318 10319 10320 10322 10322 10322 10324 10326 10330 10337 10341 10341 10340 10340 10339 10340 10342 10345 10345 10344 10343 10344 10344 10345 10346 10347 10347 10348 10349 10350 10351 10352 10352 10353 10354 10354 10355 10355 10356 10356 10357 10358 10359 10360 10360 10361 10361 10362 10362 10362 10363 10363 10364 10365 10366 10367 10368 10368 10368 10369 10368 10367 10369 10370 10370 10371 10371 10371 10370 10370 10369 10369 10369 10370 10371 10372 10375 10376 10377 10379 10381 10382 10383 10383 10383 10383
10308 10310 10311 10313 10313 10314 10315 10317 10320 10327 10330 10330 10329 10330 10330 10331 10334 10335 10335 10335 10335 10335 10335 10336 10337 10337 10338 10339 10340 10340 10341 10342 10342 10343 10343 10344 10344 10344 10344 10345 10346 10346 10347 10347 10348 10348 10348 10349 10349 10349 10350 10350 10351 10353 10354 10356 10358 10358 10358 10358 10357 10357 10360 10361 10362 10362 10362 10361 10361 10360 10359 10359 10359 10360 10360 10361 10363 10365 10366 10368 10370 10372 10373 10374 10374 10375
10299 10300 10301 10303 10304 10305 10306 10307 10311 10316 10319 10320 10320 10321 10321 10323 10325 10325 10326 10326 10326 10326 10327 10327 10327 10328 10328 10329 10329 10330 10331 10331 10332 10332 10333 10333 10333 10333 10333 10334 10334 10335 10335 10335 10335 10335 10336 10336 10336 10336 10336 10337 10339 10341 10342 10345 10347 10348 10347 10346 10345 10346 10348 10350 10351 10352 10352 10352 10351 10350 10349 10348 10348 10349 10349 10349 10350 10352 10354 10356 10358 10360 10361 10362 10363 10364
10289 10291 10292 10294 10295 10296 10297 10299 10301 10305 10307 10309 10310 10311 10312 10313 10315 10316 10316 10317 10317 10318 10318 10318 10318 10319 10319 10318 10319 10319 10319 10320 10320 10321 10321 10321 10321 10321 10321 10322 10322 10322 10322 10321 10321 10321 10322 10323 10324 10325 10325 10325 10326 10328 10329 10331 10332 10334 10334 10332 10332 10333 10335 10336 10338 10340 10341 10340 10340 10339 10339 10338 10338 10338 10338 10338 10339 10340 10342 10344 10346 10349 10350 10348 10349 10352
10280 10282 10283 10284 10285 10287 10288 10289 10291 10294 10296 10298 10300 10301 10302 10303 10304 10305 10306 10307 10307 10308 10308 10309 10309 10309 10309 10309 10309 10308 10308 10308 10308 10309 10309 10309 10308 10308 10309 10309 10309 10309 10308 10307 10306 10306 10307 10309 10311 10312 10313 10312 10311 10312 10313 10314 10315 10318 10319 10319 10318 10319 10321 10323 10325 10326 10327 10328 10328 10327 10327 10327 10327 10326 10326 10326 10327 10328 10330 10332 10334 10338 10338 10335 10334 10339
10272 10273 10274 10275 10276 10277 10278 10280 10282 10284 10285 10287 10289 10290 10291 10293 10294 10295 10296 10296 10297 10297 10298 10298 10298 10298 10298 10298 10298 10297 10297 10297 10297 10297 10298 10298 10297 10297 10297 10297 10296 10295 10294 10293 10292 10293 10294 10296 10298 10298 10299 10298 10296 10295 10297 10298 10298 10301 10303 10305 10305 10305 10306 10308 10310 10311 10312 10313 10313 10314 10314 10315 10315 10315 10314 10314 10315 10315 10317 10319 10321 10324 10326 10324 10322 10326
10263 10264 10266 10266 10267 10268 10269 10270 10273 10274 10275 10276 10278 10279 10280 10281 10282 10284 10285 10285 10286 10287 10287 10287 10288 10287 10287 10287 10286 10286 10286 10286 10286 10287 10287 10286 10287 10287 10287 10286 10284 10283 10281 10281 10282 10283 10284 10284 10284 10283 10283 10283 10283 10282 10283 10283 10283 10284 10287 10289 10290 10291 10292 10293 10294 10295 10296 10297 10297 10299 10300 10300 10301 10301 10302 10302 10302 10303 10303 10305 10307 10310 10312 10313 10313 10315
10254 10255 10256 10257 10258 10259 10260 10261 10263 10264 10265 10266 10267 10267 10268 10269 10270 10271 10273 10273 10274 10275 10276 10276 10277 10277 10277 10276 10276 10276 10276 10276 10277 10277 10276 10275 10275 10275 10274 10274 10272 10271 10270 10270 10271 10271 10271 10270 10270 10270 10270 10270 10270 10270 10269 10268 10268 10268 10270 10273 10275 10276 10278 10278 10278 10280 10281 10281 10281 10282 10283 10284 10285 10286 10287 10288 10289 10290 10291 10291 10293 10295 10298 10301 10302 10303
10245 10246 10247 10248 10248 10249 10250 10251 10252 10253 10254 10255 10255 10256 10256 10257 10258 10260 10261 10262 10263 10264 10265 10266 10266 10267 10267 10267 10267 10267 10266 10266 10266 10266 10265 10264 10262 10262 10261 10261 10260 10260 10260 10260 10259 10258 10257 10257 10257 10257 10257 10256 10256 10256 10255 10254 10253 10253 10254 10256 10258 10260 10262 10263 10263 10264 10264 10264 10264 10265 10265 10266 10268 10271 10272 10273 10275 10276 10277 10278 10280 10281 10285 10288 10287 10287
10237 10238 10238 10239 10239 10240 10241 10241 10242 10243 10244 10245 10246 10247 10247 10248 10248 10249 10250 10250 10251 10252 10253 10254 10256 10256 10257 10256 10256 10256 10255 10254 10254 10254 10253 10251 10250 10249 10249 10249 10249 10249 10248 10247 10247 10246 10245 10245 10245 10244 10243 10242 10242 10242 10241 10240 10240 10239 10239 10240 10241 10243 10246 10248 10249 10250 10249 10249 10249 10249 10250 10252 10254 10256 10258 10260 10261 10262 10262 10264 10266 10267 10270 10274 10275 10274